Regional Weather Roundup
Issued by NWS

Home | Current Version | Previous Version | Text Only | Print | Product List | Glossary Off
Versions: 1 2 3 4 5 6 7 8 9 10 11 12 13 14 15 16 17 18 19 20 21 22 23 24 25 26 27 28 29 30 31 32 33 34 35 36 37 38 39 40 41 42 43 44 45 46 47 48 49 50

000
ASUS43 KFSD 280210
RWRSD

WEATHER ROUNDUP FOR SOUTH DAKOTA
NATIONAL WEATHER SERVICE SIOUX FALLS SD
800 PM CST FRI FEB 27 2015

NOTE: "FAIR" INDICATES FEW OR NO CLOUDS BELOW 12,000 FEET WITH NO
SIGNIFICANT WEATHER AND/OR OBSTRUCTIONS TO VISIBILITY.


SDZ001>005-009-010-012>017-280300-
NORTHWEST AND NORTH CENTRAL SOUTH DAKOTA

CITY           SKY/WX    TMP DP  RH WIND       PRES   REMARKS
BUFFALO          N/A     18   9  68 S12       29.93S WCI   5
FAITH            N/A     21   3  45 SE14      30.06S WCI   8
$$

SDZ012>016-024>037-041>051-057-063-072>074-280300-
SOUTHWEST AND SOUTH CENTRAL SOUTH DAKOTA

CITY           SKY/WX    TMP DP  RH WIND       PRES   REMARKS
RAPID CTY ARPT MOCLDY    17   9  70 S13       30.02R WCI   4
PIERRE         CLEAR     18  -3  39 SE13      30.21S WCI   5
CUSTER         CLOUDY    12   7  80 S7        29.87R WCI   1
ELLSWORTH AFB  CLEAR     18   9  69 S12       30.00S WCI   5
PHILIP         PTCLDY    23   5  46 S10       30.13R WCI  12
PINE RIDGE     MOCLDY    20   7  57 S14       30.06R WCI   7
WINNER         FAIR      18  -5  36 SE12      30.24R WCI   5
$$

SDZ004>011-016>023-039-040-280300-
NORTHEAST SOUTH DAKOTA

CITY           SKY/WX    TMP DP  RH WIND       PRES   REMARKS
ABERDEEN       CLEAR      4  -3  73 SE9       30.34F WCI -10
WATERTOWN      CLEAR      5  -2  72 S10       30.35S WCI -10
SISSETON         N/A      3  -3  76 S7        30.39S WCI  -9
$$

SDZ017-020-022-023-036>040-048>070-280300-
SOUTHEAST SOUTH DAKOTA

CITY           SKY/WX    TMP DP  RH WIND       PRES   REMARKS
SIOUX FALLS    CLEAR     10   1  67 SE13      30.42S WCI  -5
HURON          CLEAR     11   0  61 SE13      30.36R WCI  -4
CHAMBERLAIN    CLEAR     11  -4  50 SE9       30.29R WCI  -1
MITCHELL       CLEAR     15   3  59 SE13      30.39R WCI   1
YANKTON        CLEAR     12   3  67 SE9       30.44R WCI   0
$$

ABBREVIATIONS USED IN REMARKS
   TC - TEMPERATURE IN CELSIUS
  WCI - WIND CHILL INDEX
   HX - HEAT INDEX
  VSB - VISIBILITY




USA.gov is the U.S. government's official web portal to all federal, state and local government web resources and services.